Maxwell AFB, AL

11:25 AM CDT on October 22, 2017 (GMT -0500)
Maxwell Air Force Base

Weather History for KMXF - July, 2013

Change the Weather History Date:

Monday, July 15, 2013

  Actual Average Record
Temperature  
Mean Temperature 81 °F -  
Max Temperature 89 °F 91 °F 102 °F (2000)
Min Temperature 74 °F 72 °F 66 °F (2008)
Cooling Degree Days 16    
Growing Degree Days 31 (Base 50)    
Moisture  
Dew Point 71 °F    
Average Humidity 77    
Maximum Humidity 90    
Minimum Humidity 51    
Precipitation  
Precipitation 0.04 in - - ()
Sea Level Pressure  
Sea Level Pressure 30.17 in    
Wind  
Wind Speed 9 mph (East)    
Max Wind Speed 21 mph    
Max Gust Speed 29 mph    
Visibility 10 miles    
Events Rain , Thunderstorm    
Averages and records for this station are not official NWS values.
T = Trace of Precipitation, MM = Missing Value Source: NWS Daily Summary

Daily Weather History Graph

Daily Weather History Graph

Search for Another Location

Airport or City:

Trip Planner

Search our weather history database for the weather conditions in past years. The results will help you decide how hot, cold, wet, or windy it might be!

Date:

Astronomy

Jul. 15, 2013 Rise Set
Actual Time 5:49 AM CDT 7:53 PM CDT
Civil Twilight 5:21 AM CDT 8:21 PM CDT
Nautical Twilight 4:47 AM CDT 8:54 PM CDT
Astronomical Twilight 4:11 AM CDT 9:30 PM CDT
Moon 12:40 PM CDT (7/15) No Moon Set
Length of Visible Light 14h 59m
Length of Day
14h 03m
Waxing Crescent, 45% of the Moon is Illuminated
Jul 15
Waxing Crescent
Jul 15
First Quarter
Jul 22
Full
Jul 29
Last Quarter
Aug 6
New

Hourly Weather History & Observations

Time (CDT) Temp. Heat Index Dew Point Humidity Pressure Visibility Wind Dir Wind Speed Gust Speed Precip Events Conditions
1:58 AM 77.2 °F - 72.1 °F 84% 30.11 in 10.0 mi East 9.2 mph - N/A   Partly Cloudy
2:23 AM 77.0 °F - 71.6 °F 83% 30.11 in 10.0 mi East 5.8 mph - N/A   Mostly Cloudy
2:27 AM 77.0 °F - 71.6 °F 83% 30.11 in 10.0 mi East 6.9 mph - N/A   Mostly Cloudy
2:48 AM 77.0 °F - 71.6 °F 83% 30.11 in 10.0 mi East 10.4 mph - N/A   Mostly Cloudy
2:55 AM 77.0 °F - 71.6 °F 83% 30.11 in 10.0 mi East 11.5 mph - N/A   Mostly Cloudy
3:20 AM 77.0 °F - 71.6 °F 83% 30.11 in 10.0 mi East 10.4 mph - N/A   Overcast
3:55 AM 77.0 °F - 71.6 °F 83% 30.12 in 10.0 mi East 8.1 mph - N/A   Mostly Cloudy
4:03 AM 77.0 °F - 71.6 °F 83% 30.12 in 10.0 mi ESE 10.4 mph - N/A   Mostly Cloudy
4:58 AM 76.3 °F - 71.6 °F 85% 30.14 in 10.0 mi East 6.9 mph - N/A   Overcast
5:58 AM 76.5 °F - 71.4 °F 84% 30.17 in 10.0 mi East 8.1 mph - N/A   Overcast
6:03 AM 77.0 °F - 71.6 °F 83% 30.16 in 10.0 mi East 6.9 mph - N/A   Overcast
6:28 AM 77.0 °F - 71.6 °F 83% 30.17 in 10.0 mi East 6.9 mph - N/A   Overcast
6:43 AM 77.0 °F - 71.6 °F 83% 30.17 in 10.0 mi East 8.1 mph - N/A   Overcast
6:58 AM 77.0 °F - 71.6 °F 83% 30.19 in 10.0 mi East 8.1 mph - N/A   Overcast
7:13 AM 77.0 °F - 71.6 °F 83% 30.18 in 10.0 mi East 9.2 mph - N/A   Overcast
7:53 AM 77.0 °F - 71.6 °F 83% 30.19 in 10.0 mi East 8.1 mph - N/A   Overcast
7:58 AM 77.9 °F - 71.4 °F 80% 30.19 in 10.0 mi East 9.2 mph - N/A   Overcast
8:03 AM 78.8 °F - 71.6 °F 78% 30.19 in 10.0 mi ESE 10.4 mph - N/A   Overcast
8:33 AM 77.0 °F - 71.6 °F 83% 30.20 in 10.0 mi East 11.5 mph - N/A   Overcast
8:58 AM 77.9 °F - 71.4 °F 80% 30.21 in 10.0 mi East 10.4 mph - N/A   Overcast
9:08 AM 78.8 °F - 71.6 °F 78% 30.20 in 10.0 mi East 10.4 mph - N/A   Overcast
9:48 AM 80.6 °F 84.6 °F 71.6 °F 74% 30.21 in 10.0 mi East 11.5 mph - N/A   Overcast
9:58 AM 80.2 °F 83.7 °F 70.7 °F 73% 30.22 in 10.0 mi East 9.2 mph - N/A   Overcast
10:03 AM 80.6 °F 84.6 °F 71.6 °F 74% 30.21 in 10.0 mi ENE 11.5 mph - N/A   Overcast
10:23 AM 82.4 °F 87.2 °F 71.6 °F 70% 30.21 in 10.0 mi East 12.7 mph - N/A   Mostly Cloudy
10:28 AM 82.4 °F 86.3 °F 69.8 °F 66% 30.21 in 10.0 mi East 12.7 mph - N/A   Mostly Cloudy
10:38 AM 82.4 °F 86.3 °F 69.8 °F 66% 30.21 in 10.0 mi East 10.4 mph - N/A   Mostly Cloudy
10:58 AM 83.3 °F 87.6 °F 70.3 °F 65% 30.22 in 10.0 mi East 11.5 mph - N/A   Mostly Cloudy
11:58 AM 84.0 °F 88.4 °F 70.0 °F 63% 30.21 in 10.0 mi East 9.2 mph 17.3 mph N/A   Mostly Cloudy
12:58 PM 85.8 °F 90.4 °F 69.8 °F 59% 30.19 in 10.0 mi East 8.1 mph - N/A   Scattered Clouds
1:58 PM 86.2 °F 90.4 °F 69.3 °F 57% 30.16 in 10.0 mi East 8.1 mph - N/A   Mostly Cloudy
2:58 PM 86.5 °F 91.0 °F 69.8 °F 57% 30.14 in 10.0 mi ENE 9.2 mph 17.3 mph N/A   Scattered Clouds
3:58 PM 88.9 °F 93.0 °F 68.7 °F 51% 30.12 in 10.0 mi East 10.4 mph - N/A   Partly Cloudy
4:58 PM 88.9 °F 94.2 °F 70.2 °F 54% 30.12 in 10.0 mi East 5.8 mph - N/A   Scattered Clouds
5:40 PM 87.8 °F 95.6 °F 73.4 °F 62% 30.13 in 10.0 mi East 20.7 mph 28.8 mph N/A Rain Light Rain
5:55 PM 78.8 °F - 73.4 °F 83% 30.14 in 3.0 mi East 8.1 mph - N/A Rain , Thunderstorm Rain
5:58 PM 78.8 °F - 73.4 °F 83% 30.15 in 3.0 mi East 8.1 mph - 0.04 in Rain , Thunderstorm Light Rain
5:59 PM 78.8 °F - 73.4 °F 83% 30.14 in 4.0 mi East 6.9 mph - N/A Rain , Thunderstorm Light Thunderstorms and Rain
6:05 PM 78.8 °F - 73.4 °F 83% 30.14 in 10.0 mi East 5.8 mph - N/A Thunderstorm Thunderstorm
6:15 PM 78.8 °F - 73.4 °F 83% 30.15 in 10.0 mi East 6.9 mph - N/A Thunderstorm Mostly Cloudy
6:58 PM 77.9 °F - 74.5 °F 89% 30.16 in 10.0 mi WSW 1.2 mph - 0.00 in   Mostly Cloudy
7:58 PM 78.6 °F - 72.1 °F 80% 30.19 in 10.0 mi ESE 10.4 mph - N/A   Mostly Cloudy
8:58 PM 77.2 °F - 70.5 °F 80% 30.19 in 10.0 mi ENE 5.8 mph - N/A   Clear
9:58 PM 75.2 °F - 70.9 °F 86% 30.19 in 10.0 mi ENE 4.6 mph - N/A   Clear
10:58 PM 74.8 °F - 71.6 °F 90% 30.21 in 10.0 mi ENE 4.6 mph - N/A   Clear
11:58 PM 76.1 °F - 71.1 °F 84% 30.21 in 10.0 mi East 8.1 mph - N/A   Clear